Location: Castelbiague
(43.0361°N, 0.9246°E)
Time: 08:56:06
(UTC+00:00)

USA 215 - Pass Details

Date: 23 October 2021
Orbit: 1099 x 1109 km, 123.0° (Epoch: 20 November)

Event Time Altitude Azimuth Distance (km) Brightness Sun altitude
Exits shadow 18:05:41 - 45° (NE) 3,307 5.3 -12.5°
Reaches altitude 10° 18:06:38 10° 42° (NE) 2,964 5.1 -12.7°
Maximum altitude 18:12:41 42° 335° (NNW) 1,524 4.2 -13.8°
Drops below altitude 10° 18:18:45 10° 267° (W) 2,963 7.0 -14.9°
Sets 18:21:21 0° 261° (W) 3,920 8.0 -15.4°
